User: anonymous   Login
Location: Sungai Bunut
(2.6333°N, 113.7333°E)
Time: 11:17:28
(UTC+00:00)
Language:

Atlas Centaur 2 - Orbit

View from above orbital plane
View from above orbital plane
View from above satellite
View from above satellite

Ground track
Ground track

The orbit data is extracted from the following two-line orbital elements,

1   694U 63047A   22020.10298606  .00000748  00000-0  82369-4 0  9998
2   694  30.3579 287.3131 0584029 198.4846 159.3678 14.03065199918455
Epoch (UTC): 20 January 2022 02:28:17
Eccentricity: 0.0584029
inclination: 30.3579°
perigee height: 459 km
apogee height: 1307 km
right ascension of ascending node: 287.3131°
argument of perigee: 198.4846°
revolutions per day: 14.03065199
mean anomaly at epoch: 159.3678°
orbit number at epoch: 91845

The dashed part of the orbit path shows where the satellite is in the earth's shadow,  

DLR